Voltar ao catálogo

TITAN 3C TRANSTAGE DEB

AtivoMEO
NORAD 43454·DEBRIS·🇺🇸 United States

Lançado Feb 9, 1969 de Cape Canaveral Space Force Station

Loading…

Próximas Passagens (próximas 24 horas)

TLE

AtualizadoSource: Space-Track

Época: Sep 13, 2026, 17:31 UTC

1 43454U 69013M   26256.73028570 -.00000164  00000-0  00000-0 0  9994
2 43454   1.3231 115.7046 0543501 358.4542   2.1896  1.02845854 31541

Acompanhe TITAN 3C TRANSTAGE DEB em tempo real com AllMySat

Download on the App Store